1519819200.61,27874,5.81,71890.5,-6.09,-42.75,-42.95,0,*5F
1519819201.87,27875,5.88,71894.8,-6.09,-42.45,-42.19,0,*59
1519819203.13,27876,5.88,71892.5,-6.07,-42.75,-42.57,0,*5D
1519819204.38,27877,5.88,71894.3,-6.09,-42.83,-42.83,0,*52
1519819205.64,27878,5.88,71896.0,-6.11,-42.45,-42.25,0,*52
1519819206.88,27879,5.88,71894.0,-6.09,-41.55,-41.41,0,*59
1519819208.11,27880,5.88,71892.3,-6.09,-41.41,-41.23,0,*5E
1519819209.35,27881,5.81,71892.3,-6.05,-42.37,-42.31,0,*51
1519819210.61,27882,5.88,71894.8,-6.07,-43.87,-44.21,0,*5D
1519819211.89,27883,5.88,71894.0,-6.07,-43.81,-43.81,0,*57
1519819213.1,27884,5.88,71892.0,-6.09,-42.25,-42.13,0,*5B
1519819214.31,27885,5.81,71890.8,-6.09,-42.37,-42.25,0,*5C
1519819215.57,27886,5.88,71892.3,-6.07,-41.61,-41.55,0,*55
1519819216.81,27887,5.88,71894.5,-6.07,-42.75,-42.63,0,*54
1519819218.05,27888,5.81,71892.0,-6.05,-42.19,-42.13,0,*54
1519819219.29,27889,5.88,71892.3,-6.07,-42.75,-42.75,0,*5D
1519819220.53,27890,5.88,71894.3,-6.07,-43.49,-43.41,0,*5D
1519819221.77,27891,5.88,71894.5,-6.07,-44.27,-44.41,0,*54
1519819223.02,27892,5.88,71894.5,-6.09,-42.83,-42.83,0,*59
1519819224.26,27893,5.88,71894.3,-6.09,-43.15,-42.95,0,*51
1519819225.49,27894,5.88,71894.0,-6.09,-42.13,-41.93,0,*54
1519819226.7,27895,5.88,71894.5,-6.09,-41.99,-41.99,0,*5E
1519819227.96,27896,5.88,71896.5,-6.09,-41.55,-41.23,0,*5C
1519819229.23,27897,5.88,71892.3,-6.09,-41.23,-41.23,0,*5C
1519819230.47,27898,5.88,71894.8,-6.05,-41.35,-41.29,0,*52
1519819231.7,27899,5.88,71896.0,-6.05,-41.93,-41.73,0,*50
1519819232.91,27900,5.88,71894.0,-6.05,-42.51,-42.51,0,*5F
1519819234.16,27901,5.88,71896.5,-6.07,-41.99,-41.93,0,*56
1519819235.37,27902,5.88,71894.3,-6.05,-42.37,-42.13,0,*5B
1519819236.6,27903,5.88,71892.0,-6.05,-42.57,-42.51,0,*5A
1519819237.83,27904,5.88,71898.8,-6.05,-43.95,-44.13,0,*52
1519819239.05,27905,5.88,71892.8,-6.05,-44.87,-44.87,0,*5A
1519819240.28,27906,5.88,71890.8,-6.07,-45.13,-45.13,0,*5B
1519819241.51,27907,5.88,71894.3,-6.11,-43.87,-43.87,0,*5D
1519819242.8,27908,5.88,71894.0,-6.11,-42.31,-42.19,0,*58
1519819244.07,27909,5.88,71898.3,-6.09,-43.29,-42.95,0,*5C
1519819245.29,27910,5.88,71896.0,-6.09,-42.57,-42.37,0,*54
1519819246.55,27911,5.88,71896.8,-6.09,-41.93,-41.81,0,*50
1519819247.79,27912,5.88,71898.0,-6.09,-41.35,-41.03,0,*55
1519819249.03,27913,5.88,71894.8,-6.05,-41.35,-41.29,0,*50
1519819250.24,27914,5.88,71894.8,-6.05,-41.11,-40.91,0,*53
1519819251.48,27915,5.88,71894.3,-6.05,-41.73,-41.55,0,*5F
1519819252.72,27916,5.88,71896.3,-6.05,-42.95,-42.75,0,*56
1519819253.98,27917,5.88,71892.3,-6.01,-43.21,-43.09,0,*57
1519819255.18,27918,5.88,71892.5,-6.01,-42.25,-41.99,0,*56
1519819256.44,27919,5.88,71892.8,-5.99,-42.13,-41.81,0,*59
1519819257.67,27920,5.88,71892.5,-5.99,-42.13,-41.87,0,*55
1519819258.88,27921,5.88,71892.3,-6.01,-42.63,-42.63,0,*58
1519819260.14,27922,5.88,71892.3,-6.01,-42.83,-42.69,0,*5F
1519819261.36,27923,5.88,71892.0,-5.99,-41.87,-41.49,0,*5A
1519819262.62,27924,5.88,71894.8,-5.99,-41.67,-41.49,0,*53
1519819263.87,27925,5.88,71894.8,-5.99,-42.45,-42.13,0,*5D
1519819265.08,27926,5.88,71898.5,-5.97,-41.73,-41.41,0,*52
1519819266.33,27927,5.88,71892.3,-5.97,-41.93,-41.81,0,*51
1519819267.57,27928,5.88,71894.3,-5.95,-42.37,-42.19,0,*53
1519819268.81,27929,5.88,71892.0,-5.97,-43.01,-42.83,0,*57
1519819270.05,27930,5.88,71892.3,-5.97,-42.05,-41.93,0,*58
1519819271.27,27931,5.88,71898.0,-5.95,-42.37,-42.25,0,*54
1519819272.5,27932,5.88,71892.8,-5.95,-41.81,-41.61,0,*5A
1519819273.75,27933,5.88,71892.5,-5.95,-41.61,-41.35,0,*54
1519819274.99,27934,5.81,71888.8,-5.95,-41.23,-41.17,0,*55
1519819276.23,27935,5.88,71896.3,-5.91,-41.55,-41.29,0,*5C
1519819277.49,27936,5.88,71896.0,-5.89,-42.13,-41.81,0,*55
1519819278.73,27937,5.88,71896.0,-5.91,-42.19,-41.99,0,*5E
1519819279.96,27938,5.88,71898.3,-5.91,-42.75,-42.57,0,*5A
1519819281.2,27939,5.88,71896.3,-5.91,-41.87,-41.55,0,*54
1519819282.44,27940,5.88,71898.0,-5.89,-41.11,-40.91,0,*55
1519819283.67,27941,5.88,71892.5,-5.89,-41.61,-41.29,0,*51
1519819284.89,27942,5.88,71890.5,-5.87,-41.03,-40.65,0,*51
1519819286.16,27943,5.88,71892.3,-5.87,-41.23,-40.85,0,*5C
1519819287.44,27944,5.88,71894.0,-5.85,-40.97,-40.59,0,*56
1519819288.68,27945,5.88,71892.3,-5.83,-41.35,-41.17,0,*53
1519819289.89,27946,5.88,71892.3,-5.83,-41.61,-41.41,0,*52
1519819291.12,27947,5.88,71892.5,-5.83,-41.61,-41.35,0,*50
1519819292.37,27948,5.88,71894.3,-5.77,-41.29,-40.79,0,*51
1519819293.58,27949,5.88,71892.3,-5.79,-41.49,-41.17,0,*51
1519819294.87,27950,5.88,71892.0,-5.77,-41.55,-41.35,0,*5A
1519819296.14,27951,5.88,71892.3,-5.77,-41.11,-40.97,0,*52
1519819297.39,27952,5.88,71898.0,-5.77,-41.11,-40.79,0,*51
1519819298.63,27953,5.88,71896.3,-5.75,-41.11,-40.85,0,*51
1519819299.84,27954,5.88,71892.5,-5.75,-41.41,-41.11,0,*5F
1519819301.1,27955,5.88,71898.0,-5.73,-42.83,-42.63,0,*53
1519819302.31,27956,5.88,71894.8,-5.75,-43.49,-43.49,0,*58
1519819303.55,27957,5.88,71894.3,-5.75,-42.83,-42.51,0,*56
1519819304.76,27958,5.88,71892.3,-5.75,-41.61,-41.29,0,*5A
1519819306.02,27959,5.88,71892.0,-5.73,-42.13,-41.93,0,*5A
1519819307.25,27960,5.88,71896.3,-5.75,-42.89,-42.69,0,*53
1519819308.52,27961,5.88,71892.5,-5.75,-42.95,-42.83,0,*5B
1519819309.78,27962,5.88,71892.5,-5.75,-42.95,-42.69,0,*5C
1519819311.02,27963,5.88,71896.8,-5.75,-43.15,-42.95,0,*57
1519819312.25,27964,5.88,71896.8,-5.75,-42.89,-42.69,0,*57
1519819313.51,27965,5.88,71896.8,-5.77,-43.75,-43.55,0,*58
1519819314.77,27966,5.88,71894.8,-5.77,-42.75,-42.69,0,*54
1519819316.07,27967,5.88,71896.3,-5.77,-41.81,-41.67,0,*50
1519819317.32,27968,5.88,71896.5,-5.77,-42.13,-41.93,0,*5C
1519819318.58,27969,5.88,71894.8,-5.77,-43.35,-43.21,0,*53
1519819319.86,27970,5.88,71894.8,-5.77,-44.33,-44.13,0,*5C
1519819321.14,27971,5.88,71892.5,-5.77,-44.13,-44.13,0,*5F
1519819322.37,27972,5.88,71892.0,-5.79,-43.95,-43.81,0,*57
1519819323.6,27973,5.88,71894.8,-5.79,-43.35,-42.95,0,*58
1519819324.86,27974,5.88,71896.0,-5.79,-42.57,-42.31,0,*54
1519819326.11,27975,5.88,71894.5,-5.79,-40.91,-40.41,0,*58
1519819327.34,27976,5.88,71892.3,-5.77,-41.49,-41.17,0,*53
1519819328.61,27977,5.88,71896.3,-5.77,-41.17,-40.97,0,*50
1519819329.87,27978,5.88,71896.0,-5.75,-42.05,-41.67,0,*53
1519819331.11,27979,5.88,71892.8,-5.75,-41.67,-41.29,0,*5F
1519819332.32,27980,5.88,71898.8,-5.75,-41.11,-40.73,0,*56
1519819333.55,27981,5.88,71894.5,-5.73,-40.91,-40.73,0,*58
1519819334.8,27982,5.88,71894.3,-5.73,-40.29,-40.03,0,*5F
1519819336.03,27983,5.88,71890.3,-5.69,-40.73,-40.35,0,*5F
1519819337.24,27984,5.88,71894.3,-5.67,-41.29,-40.91,0,*56
1519819338.47,27985,5.88,71892.8,-5.69,-41.11,-40.73,0,*5E
1519819339.68,27986,5.88,71892.0,-5.67,-41.29,-40.91,0,*54
1519819340.94,27987,5.88,71894.8,-5.65,-42.19,-42.13,0,*5F
1519819342.19,27988,5.88,71894.8,-5.67,-43.21,-42.83,0,*51
1519819343.39,27989,5.88,71896.5,-5.67,-42.75,-42.37,0,*5F
1519819344.63,27990,5.88,71894.5,-5.67,-41.73,-41.35,0,*53
1519819345.83,27991,5.88,71892.8,-5.67,-41.73,-41.49,0,*59
1519819347.06,27992,5.88,71894.3,-5.67,-42.31,-42.13,0,*53
1519819348.29,27993,5.88,71892.3,-5.67,-41.93,-41.61,0,*5F
1519819349.52,27994,5.88,71890.3,-5.65,-41.99,-41.61,0,*50
1519819350.78,27995,5.88,71892.5,-5.67,-42.19,-41.81,0,*56
1519819352.04,27996,5.88,71894.5,-5.65,-41.99,-41.55,0,*55
1519819353.32,27997,5.88,71894.5,-5.65,-42.19,-41.93,0,*55
1519819354.58,27998,5.88,71892.3,-5.65,-41.99,-41.55,0,*5B
1519819355.79,27999,5.88,71894.8,-5.63,-41.73,-41.49,0,*55
1519819357.06,28000,5.88,71892.3,-5.61,-41.87,-41.55,0,*57
1519819358.29,28001,5.88,71892.5,-5.63,-42.05,-41.73,0,*59
1519819359.51,28002,5.88,71894.8,-5.63,-41.87,-41.29,0,*5C
1519819360.74,28003,5.88,71892.5,-5.61,-41.73,-41.41,0,*5A
1519819361.96,28004,5.88,71892.8,-5.63,-41.49,-41.11,0,*53
1519819363.2,28005,5.88,71894.0,-5.61,-41.29,-40.91,0,*5F
1519819364.43,28006,5.88,71892.0,-5.61,-41.73,-41.29,0,*51
1519819365.67,28007,5.88,71892.8,-5.57,-41.99,-41.49,0,*57
1519819366.93,28008,5.88,71894.0,-5.57,-43.67,-43.49,0,*59
1519819368.21,28009,5.88,71892.3,-5.57,-42.19,-41.81,0,*56
1519819369.48,28010,5.88,71892.0,-5.57,-41.81,-41.41,0,*50
1519819370.73,28011,5.88,71892.5,-5.57,-41.81,-41.49,0,*59
1519819372.0,28012,5.88,71892.5,-5.57,-42.19,-41.87,0,*5A
1519819373.28,28013,5.88,71892.3,-5.57,-42.69,-42.45,0,*51
1519819374.57,28014,5.88,71892.3,-5.61,-42.31,-42.05,0,*5A
1519819375.8,28015,5.88,71892.3,-5.61,-42.63,-42.25,0,*5E
1519819377.1,28016,5.88,71892.0,-5.61,-42.95,-42.69,0,*5C
1519819378.33,28017,5.88,71892.8,-5.61,-42.63,-42.25,0,*5C
1519819379.61,28018,5.88,71892.8,-5.57,-42.05,-41.81,0,*5B
1519819380.9,28019,5.88,71894.5,-5.57,-42.45,-42.19,0,*5C
1519819382.16,28020,5.88,71890.0,-5.57,-42.45,-41.87,0,*52
1519819383.4,28021,5.88,71894.3,-5.57,-41.87,-41.41,0,*54
1519819384.63,28022,5.88,71894.8,-5.57,-42.25,-41.99,0,*59
1519819385.87,28023,5.88,71892.3,-5.55,-42.13,-41.81,0,*56
1519819387.1,28024,5.88,71898.0,-5.55,-42.31,-41.99,0,*58
1519819388.36,28025,5.88,71892.5,-5.57,-43.67,-43.61,0,*5C
1519819389.6,28026,5.88,71892.5,-5.61,-44.07,-44.07,0,*5C
1519819390.87,28027,5.88,71894.0,-5.61,-43.75,-43.67,0,*5E
1519819392.1,28028,5.88,71890.5,-5.63,-42.69,-42.51,0,*5B
1519819393.32,28029,5.88,71892.3,-5.63,-42.75,-42.51,0,*57
1519819394.58,28030,5.88,71892.8,-5.63,-42.45,-42.05,0,*5D
1519819395.84,28031,5.88,71892.3,-5.61,-41.93,-41.73,0,*54
1519819397.11,28032,5.88,71892.3,-5.63,-41.93,-41.67,0,*50
1519819398.37,28033,5.88,71894.0,-5.61,-42.05,-41.87,0,*51
1519819399.61,28034,5.88,71890.8,-5.61,-42.13,-41.73,0,*5A
1519819400.85,28035,5.88,71896.8,-5.63,-42.51,-42.31,0,*5A
1519819402.1,28036,5.88,71894.0,-5.63,-43.75,-43.67,0,*5C
1519819403.34,28037,5.88,71896.8,-5.63,-42.95,-42.63,0,*57
1519819404.58,28038,5.88,71896.5,-5.63,-42.69,-42.51,0,*5A
1519819405.82,28039,5.88,71892.5,-5.63,-43.55,-43.35,0,*56
1519819407.06,28040,5.88,71894.8,-5.63,-43.35,-42.95,0,*55
1519819408.32,28041,5.88,71896.0,-5.61,-41.87,-41.55,0,*52
1519819409.58,28042,5.88,71892.8,-5.63,-42.31,-41.93,0,*57
1519819410.82,28043,5.88,71894.0,-5.63,-43.75,-43.55,0,*5F
1519819412.06,28044,5.88,71892.8,-5.63,-43.87,-43.55,0,*55
1519819413.29,28045,5.88,71894.0,-5.65,-41.99,-41.73,0,*59
1519819414.52,28046,5.88,71894.3,-5.63,-42.45,-42.13,0,*5B
1519819415.76,28047,5.88,71894.0,-5.63,-43.49,-43.09,0,*5D
1519819417.05,28048,5.88,71892.8,-5.65,-42.95,-42.57,0,*5E
1519819418.33,28049,5.88,71892.8,-5.65,-42.95,-42.69,0,*52
1519819419.59,28050,5.88,71892.8,-5.65,-42.69,-42.37,0,*52
1519819420.87,28051,5.88,71892.3,-5.65,-42.19,-41.93,0,*59
1519819422.1,28052,5.88,71894.5,-5.65,-41.99,-41.73,0,*5F
1519819423.39,28053,5.88,71892.3,-5.65,-42.19,-41.81,0,*58
1519819424.65,28054,5.88,71894.3,-5.63,-43.09,-42.69,0,*5C
1519819425.88,28055,5.88,71892.3,-5.63,-42.69,-42.51,0,*51
1519819427.17,28056,5.88,71888.8,-5.65,-42.57,-42.19,0,*55
1519819428.42,28057,5.88,71894.0,-5.65,-42.37,-41.81,0,*50
1519819429.65,28058,5.88,71894.0,-5.65,-41.99,-41.61,0,*56
1519819430.89,28059,5.88,71892.5,-5.65,-42.13,-41.73,0,*55
1519819432.14,28060,5.88,71894.5,-5.65,-42.57,-42.13,0,*5A
1519819433.42,28061,5.88,71894.0,-5.65,-42.83,-42.57,0,*52
1519819434.68,28062,5.88,71898.0,-5.63,-41.93,-41.67,0,*55
1519819435.95,28063,5.88,71892.5,-5.61,-41.93,-41.49,0,*5A
1519819437.21,28064,5.88,71896.0,-5.63,-42.05,-41.55,0,*5E
1519819438.42,28065,5.88,71894.8,-5.63,-42.63,-42.25,0,*5B
1519819439.65,28066,5.88,71892.3,-5.61,-42.51,-42.13,0,*5E
1519819440.87,28067,5.88,71892.5,-5.63,-42.25,-41.73,0,*5B
1519819442.1,28068,5.88,71896.8,-5.63,-42.25,-41.93,0,*5A
1519819443.34,28069,5.88,71894.0,-5.61,-41.87,-41.41,0,*5D
1519819444.64,28070,5.88,71894.8,-5.61,-41.93,-41.67,0,*54
1519819445.93,28071,5.88,71892.3,-5.61,-42.05,-41.55,0,*58
1519819447.16,28072,5.88,71896.3,-5.61,-41.73,-41.41,0,*5C
1519819448.4,28073,5.88,71894.5,-5.61,-42.51,-42.25,0,*5F
1519819449.67,28074,5.88,71892.3,-5.61,-44.21,-44.07,0,*5F
1519819450.91,28075,5.88,71892.5,-5.61,-44.07,-43.75,0,*58
1519819452.18,28076,5.88,71896.8,-5.61,-43.09,-42.75,0,*53
1519819453.44,28077,5.88,71894.0,-5.63,-43.09,-42.69,0,*5D
1519819454.67,28078,5.88,71892.0,-5.63,-42.75,-42.45,0,*56
1519819455.89,28079,5.88,71892.3,-5.63,-44.79,-44.61,0,*5D
1519819457.1,28080,5.88,71892.8,-5.63,-43.15,-42.75,0,*55
1519819458.33,28081,5.88,71894.0,-5.65,-42.75,-42.37,0,*53
1519819459.56,28082,5.88,71894.0,-5.65,-41.99,-41.61,0,*51
1519819460.79,28083,5.88,71892.8,-5.65,-42.37,-41.99,0,*50
1519819462.08,28084,5.88,71890.8,-5.65,-42.69,-42.19,0,*57
1519819463.36,28085,5.88,71894.8,-5.65,-42.31,-41.81,0,*59
1519819464.59,28086,5.88,71888.3,-5.65,-43.35,-43.15,0,*50
1519819465.82,28087,5.88,71890.8,-5.65,-44.61,-44.41,0,*51
1519819467.05,28088,5.88,71892.8,-5.67,-43.55,-43.15,0,*5A
1519819468.28,28089,5.88,71888.8,-5.65,-43.35,-43.15,0,*5F
1519819469.5,28090,5.88,71894.0,-5.67,-43.01,-42.75,0,*55
1519819470.79,28091,5.88,71894.8,-5.65,-42.95,-42.69,0,*57
1519819472.05,28092,5.88,71894.0,-5.65,-42.83,-42.51,0,*58
1519819473.33,28093,5.88,71894.3,-5.65,-42.19,-41.93,0,*57
1519819474.59,28094,5.88,71892.3,-5.67,-41.93,-41.35,0,*5F
1519819475.82,28095,5.88,71894.3,-5.67,-42.51,-41.81,0,*5C
1519819477.08,28096,5.88,71890.8,-5.65,-41.55,-40.91,0,*5A
1519819478.34,28097,5.88,71890.5,-5.65,-41.55,-41.17,0,*54
1519819479.58,28098,5.88,71892.8,-5.65,-41.73,-41.29,0,*52
1519819480.84,28099,5.94,71896.0,-5.61,-41.23,-40.65,0,*5B
1519819482.11,28100,5.88,71890.0,-5.61,-41.67,-41.29,0,*53
1519819483.37,28101,5.88,71894.0,-5.61,-41.11,-40.85,0,*54
1519819484.6,28102,5.88,71892.3,-5.55,-41.17,-40.79,0,*55
1519819485.84,28103,5.88,71892.8,-5.55,-41.55,-41.11,0,*5D
1519819487.05,28104,5.88,71890.0,-5.55,-43.95,-43.61,0,*51
1519819488.3,28105,5.88,71890.8,-5.57,-44.73,-44.53,0,*5B
1519819489.54,28106,5.88,71892.5,-5.61,-44.41,-43.95,0,*51
1519819490.78,28107,5.88,71892.3,-5.63,-42.95,-42.51,0,*54
1519819492.08,28108,5.88,71892.5,-5.61,-42.69,-42.31,0,*5C
1519819493.37,28109,5.88,71892.8,-5.61,-42.95,-42.69,0,*53
1519819494.6,28110,5.88,71894.0,-5.63,-42.63,-42.05,0,*5A
1519819495.84,28111,5.88,71894.0,-5.61,-41.87,-41.49,0,*5B
1519819497.12,28112,5.88,71892.0,-5.61,-42.31,-41.93,0,*51
1519819498.35,28113,5.88,71892.3,-5.63,-42.13,-41.93,0,*52
1519819499.59,28114,5.88,71894.3,-5.63,-42.05,-41.73,0,*5C
1519819500.83,28115,5.88,71892.3,-5.61,-41.49,-41.11,0,*50
1519819502.08,28116,5.88,71890.5,-5.61,-40.65,-40.29,0,*56
1519819503.32,28117,5.88,71894.0,-5.55,-41.61,-41.35,0,*59
1519819504.52,28118,5.88,71892.8,-5.55,-41.17,-40.73,0,*54
1519819505.73,28119,5.88,71894.0,-5.55,-41.61,-41.17,0,*57
1519819506.96,28120,5.88,71892.8,-5.55,-40.79,-40.35,0,*54
1519819508.2,28121,5.88,71894.8,-5.53,-41.17,-40.91,0,*54
1519819509.46,28122,5.94,71896.3,-5.53,-42.13,-41.81,0,*50
1519819510.7,28123,5.88,71894.5,-5.53,-42.13,-41.73,0,*5C
1519819511.94,28124,5.88,71894.8,-5.51,-43.35,-42.95,0,*57
1519819513.2,28125,5.88,71892.8,-5.53,-43.21,-43.01,0,*5D
1519819514.46,28126,5.88,71892.5,-5.53,-42.19,-41.61,0,*50
1519819515.76,28127,5.88,71892.8,-5.53,-41.81,-41.35,0,*52
1519819517.05,28128,5.88,71892.5,-5.53,-41.35,-40.97,0,*5B
1519819518.29,28129,5.88,71892.5,-5.51,-42.25,-41.93,0,*5F
1519819519.52,28130,5.88,71890.0,-5.51,-42.57,-42.25,0,*5C
1519819520.75,28131,5.88,71892.5,-5.51,-41.55,-41.11,0,*58
1519819521.97,28132,5.88,71890.3,-5.51,-41.87,-41.49,0,*59
1519819523.18,28133,5.94,71894.0,-5.51,-41.87,-41.29,0,*5E
1519819524.41,28134,5.88,71888.5,-5.49,-41.03,-40.47,0,*55
1519819525.71,28135,5.88,71894.5,-5.45,-41.67,-41.23,0,*59
1519819526.94,28136,5.88,71892.0,-5.49,-42.89,-42.51,0,*53
1519819528.23,28137,5.88,71890.8,-5.49,-42.57,-42.31,0,*57
1519819529.46,28138,5.88,71894.3,-5.49,-44.61,-44.41,0,*5A
1519819530.69,28139,5.88,71890.3,-5.51,-45.81,-45.61,0,*5E
1519819531.92,28140,5.88,71892.0,-5.55,-45.21,-44.67,0,*59
1519819533.15,28141,5.88,71888.0,-5.55,-44.47,-43.95,0,*53
1519819534.43,28142,5.88,71888.0,-5.57,-44.47,-44.33,0,*59
1519819535.64,28143,5.88,71892.5,-5.55,-44.99,-44.79,0,*57
1519819536.87,28144,5.88,71890.0,-5.63,-46.75,-46.61,0,*5E
1519819538.08,28145,5.94,71892.8,-5.63,-47.57,-47.51,0,*5C
1519819539.29,28146,5.88,71890.8,-5.67,-47.85,-47.65,0,*53
1519819540.55,28147,5.88,71892.3,-5.71,-48.27,-48.13,0,*5C
1519819541.78,28148,5.88,71888.8,-5.75,-48.49,-48.35,0,*5B
1519819543.02,28149,5.88,71890.8,-5.79,-48.49,-48.27,0,*55
1519819544.27,28150,5.88,71890.3,-5.83,-47.71,-47.71,0,*50
1519819545.52,28151,5.88,71886.8,-5.89,-47.17,-47.03,0,*5E
1519819546.78,28152,5.88,71888.5,-5.91,-47.23,-46.89,0,*50
1519819548.03,28153,5.88,71888.0,-5.93,-48.55,-48.55,0,*52
1519819549.29,28154,5.88,71888.0,-5.95,-48.13,-48.27,0,*54
1519819550.55,28155,5.88,71888.8,-5.99,-48.13,-47.99,0,*53
1519819551.76,28156,5.88,71888.8,-6.05,-48.41,-48.21,0,*5D
1519819552.97,28157,5.94,71888.3,-6.05,-47.17,-46.83,0,*56
1519819554.21,28158,5.88,71888.5,-6.07,-45.67,-45.53,0,*50
1519819555.44,28159,5.88,71890.0,-6.09,-44.67,-44.61,0,*5E
1519819556.67,28160,5.94,71890.5,-6.09,-43.21,-43.01,0,*50
1519819557.88,28161,5.88,71888.8,-6.05,-42.89,-42.51,0,*5A
1519819559.14,28162,5.88,71888.3,-6.05,-43.09,-42.69,0,*5B
1519819560.38,28163,5.88,71890.0,-6.05,-42.75,-42.31,0,*5D
1519819561.58,28164,5.88,71890.8,-6.01,-42.51,-42.25,0,*5D
1519819562.79,28165,5.88,71888.3,-6.01,-41.87,-41.49,0,*5D
1519819564.02,28166,5.94,71892.0,-5.99,-41.41,-41.11,0,*5B
1519819565.27,28167,5.88,71892.5,-5.99,-42.45,-42.13,0,*5C
1519819566.51,28168,5.88,71890.3,-5.95,-41.93,-41.73,0,*52
1519819567.75,28169,5.88,71890.8,-5.93,-41.61,-41.41,0,*59
1519819569.02,28170,5.94,71892.0,-5.93,-42.19,-41.99,0,*58
1519819570.28,28171,5.88,71890.5,-5.93,-42.05,-41.73,0,*50
1519819571.49,28172,5.88,71890.5,-5.91,-42.37,-41.99,0,*54
1519819572.7,28173,5.94,71894.8,-5.91,-41.99,-41.73,0,*56
1519819573.98,28174,5.88,71890.5,-5.89,-41.93,-41.81,0,*5F
1519819575.22,28175,5.88,71890.5,-5.87,-41.67,-41.41,0,*57
1519819576.43,28176,5.88,71890.3,-5.87,-43.49,-43.49,0,*50
1519819577.65,28177,5.88,71888.3,-5.87,-44.07,-43.75,0,*53
1519819578.9,28178,5.88,71890.8,-5.89,-42.63,-42.45,0,*54
1519819580.16,28179,5.88,71888.3,-5.87,-44.47,-44.33,0,*5C
1519819581.39,28180,5.88,71892.5,-5.89,-43.95,-43.75,0,*59
1519819582.62,28181,5.94,71890.8,-5.89,-43.87,-43.75,0,*5B
1519819583.85,28182,5.88,71890.3,-5.89,-43.49,-43.49,0,*55
1519819585.09,28183,5.88,71888.8,-5.89,-42.25,-42.13,0,*51
1519819586.33,28184,5.88,71890.8,-5.87,-41.87,-41.67,0,*53
1519819587.57,28185,5.88,71890.0,-5.87,-41.93,-41.61,0,*51
1519819588.82,28186,5.88,71888.8,-5.87,-42.05,-41.81,0,*50
1519819590.1,28187,5.88,71894.5,-5.85,-42.83,-42.45,0,*56
1519819591.36,28188,5.94,71892.3,-5.85,-42.95,-42.75,0,*5D
1519819592.62,28189,5.88,71890.8,-5.85,-43.09,-42.75,0,*58
1519819593.86,28190,5.94,71894.5,-5.83,-42.37,-42.19,0,*50
1519819595.12,28191,5.94,71894.0,-5.85,-43.67,-43.49,0,*57
1519819596.35,28192,5.94,71894.3,-5.83,-42.25,-42.05,0,*5C
1519819597.6,28193,5.94,71892.0,-5.83,-42.05,-41.81,0,*50
1519819598.81,28194,5.94,71894.0,-5.83,-41.99,-41.73,0,*5C
1519819600.05,28195,5.94,71894.8,-5.83,-41.87,-41.55,0,*56
1519819601.28,28196,5.88,71892.5,-5.79,-41.73,-41.55,0,*5B
1519819602.54,28197,5.88,71890.5,-5.77,-42.51,-42.19,0,*5C
1519819603.8,28198,5.88,71890.0,-5.79,-45.07,-45.07,0,*51
1519819605.07,28199,5.88,71894.5,-5.77,-45.07,-45.21,0,*5A
1519819606.33,28200,5.94,71892.0,-5.85,-45.27,-45.33,0,*55
1519819607.59,28201,5.88,71890.5,-5.83,-44.47,-44.21,0,*57
1519819608.82,28202,5.88,71892.0,-5.85,-43.49,-43.49,0,*52
1519819610.07,28203,5.94,71894.8,-5.83,-42.83,-42.57,0,*5C
1519819611.33,28204,5.88,71888.5,-5.85,-42.75,-42.45,0,*57
1519819612.59,28205,5.88,71890.0,-5.85,-43.01,-42.83,0,*5E
1519819613.84,28206,5.94,71892.0,-5.85,-42.37,-42.05,0,*57
1519819615.09,28207,5.94,71892.8,-5.83,-42.57,-42.45,0,*52
1519819616.35,28208,5.94,71892.5,-5.85,-42.83,-42.63,0,*56
1519819617.56,28209,5.88,71890.0,-5.83,-42.75,-42.63,0,*58
1519819618.8,28210,5.94,71892.3,-5.83,-42.95,-42.63,0,*5E
1519819620.04,28211,5.94,71892.8,-5.83,-43.41,-43.09,0,*5A
1519819621.25,28212,5.94,71890.5,-5.83,-43.61,-43.41,0,*57
1519819622.51,28213,5.94,71894.8,-5.85,-44.01,-43.87,0,*5B
1519819623.76,28214,5.88,71888.3,-5.85,-43.41,-43.29,0,*5B
1519819625.0,28215,5.94,71892.0,-5.85,-43.49,-43.41,0,*5C
1519819626.24,28216,5.94,71892.5,-5.85,-43.49,-43.41,0,*5F
1519819627.49,28217,5.94,71892.0,-5.83,-44.01,-43.81,0,*5F
1519819628.72,28218,5.94,71894.0,-5.83,-43.21,-43.01,0,*5D
1519819629.97,28219,5.94,71894.5,-5.85,-42.75,-42.57,0,*58
1519819631.21,28220,5.94,71894.0,-5.83,-42.95,-42.63,0,*5D
1519819632.49,28221,5.94,71894.3,-5.85,-43.21,-42.95,0,*5D
1519819633.75,28222,5.94,71894.3,-5.85,-43.01,-42.83,0,*5B
1519819635.01,28223,5.94,71894.8,-5.85,-43.29,-43.01,0,*5B
1519819636.25,28224,5.94,71892.0,-5.85,-43.01,-42.75,0,*54
1519819637.51,28225,5.88,71892.3,-5.85,-42.95,-42.75,0,*59
1519819638.76,28226,5.94,71898.8,-5.85,-43.01,-42.75,0,*56
1519819640.01,28227,5.94,71898.3,-5.85,-43.67,-43.61,0,*53
1519819641.25,28228,5.88,71892.8,-5.85,-42.75,-42.25,0,*5F
1519819642.5,28229,5.94,71892.5,-5.85,-42.45,-42.25,0,*5D
1519819643.75,28230,5.94,71894.3,-5.83,-42.05,-41.81,0,*5A
1519819644.98,28231,5.94,71892.8,-5.83,-42.05,-41.87,0,*5D
1519819646.21,28232,5.94,71892.5,-5.83,-42.05,-41.73,0,*55
1519819647.42,28233,5.88,71888.3,-5.83,-41.99,-41.73,0,*52
1519819648.72,28234,5.88,71888.8,-5.77,-41.35,-40.97,0,*53
1519819649.95,28235,5.94,71892.0,-5.77,-41.73,-41.49,0,*52
1519819651.23,28236,5.94,71892.8,-5.77,-41.81,-41.55,0,*51
1519819652.45,28237,5.94,71892.3,-5.75,-41.49,-41.03,0,*55
1519819653.69,28238,5.88,71892.3,-5.73,-40.91,-40.53,0,*5C
1519819654.92,28239,5.94,71892.5,-5.73,-41.29,-41.03,0,*5B
1519819656.19,28240,5.88,71892.8,-5.71,-41.81,-41.55,0,*56
1519819657.45,28241,5.94,71894.0,-5.69,-41.55,-41.29,0,*5C
1519819658.7,28242,5.94,71894.0,-5.69,-41.11,-40.79,0,*5B
1519819659.96,28243,5.94,71892.3,-5.69,-41.17,-40.97,0,*5C
1519819661.22,28244,5.94,71892.0,-5.69,-41.73,-41.55,0,*56
1519819662.46,28245,5.94,71892.8,-5.67,-46.27,-46.35,0,*5E
1519819663.69,28246,5.94,71894.0,-5.71,-46.75,-46.61,0,*5C
1519819664.91,28247,5.88,71890.0,-5.71,-45.53,-45.33,0,*5E
1519819666.17,28248,5.94,71892.5,-5.75,-43.55,-43.29,0,*58
1519819667.4,28249,5.94,71896.8,-5.75,-44.41,-44.13,0,*55
1519819668.65,28250,5.94,71892.0,-5.75,-42.45,-42.05,0,*5E
1519819669.91,28251,5.88,71892.3,-5.73,-42.69,-42.25,0,*55
1519819671.2,28252,5.94,71894.5,-5.73,-42.05,-41.67,0,*59
1519819672.46,28253,5.94,71892.3,-5.71,-42.45,-42.19,0,*54
1519819673.72,28254,5.88,71888.5,-5.69,-41.29,-40.97,0,*57
1519819674.98,28255,5.94,71894.5,-5.69,-42.13,-41.81,0,*5A
1519819676.27,28256,5.94,71894.3,-5.69,-45.27,-45.73,0,*50
1519819677.52,28257,5.94,71894.3,-5.71,-46.35,-46.15,0,*5B
1519819678.8,28258,5.94,71894.5,-5.73,-44.13,-43.67,0,*50
1519819680.06,28259,5.94,71894.5,-5.73,-43.15,-42.83,0,*5B
1519819681.34,28260,5.94,71892.0,-5.73,-43.09,-42.83,0,*5C
1519819682.62,28261,5.94,71892.8,-5.73,-42.31,-41.93,0,*55
1519819683.88,28262,5.94,71896.8,-5.73,-43.75,-43.55,0,*5F
1519819685.15,28263,5.94,71892.3,-5.75,-44.93,-44.93,0,*5A
1519819686.36,28264,5.88,71890.0,-5.75,-45.61,-45.41,0,*5F
1519819687.6,28265,5.88,71890.8,-5.75,-43.35,-42.95,0,*57
1519819688.88,28266,5.88,71892.5,-5.73,-42.69,-42.45,0,*57
1519819690.09,28267,5.94,71894.3,-5.75,-43.49,-43.15,0,*57
1519819691.3,28268,5.88,71890.0,-5.75,-43.35,-43.15,0,*53
1519819692.51,28269,5.94,71892.3,-5.75,-43.87,-43.35,0,*59
1519819693.77,28270,5.94,71892.8,-5.73,-42.31,-41.87,0,*50
1519819695.03,28271,5.88,71890.5,-5.75,-42.45,-42.05,0,*5D
1519819696.28,28272,5.88,71892.5,-5.73,-41.29,-40.85,0,*5B
1519819697.55,28273,5.94,71892.5,-5.71,-42.19,-41.81,0,*5D
1519819698.81,28274,5.94,71894.8,-5.71,-42.19,-41.81,0,*5A
1519819700.02,28275,5.94,71894.3,-5.71,-42.63,-42.25,0,*5B
1519819701.27,28276,5.94,71894.5,-5.71,-43.09,-42.75,0,*50
1519819702.47,28277,5.94,71894.3,-5.67,-42.51,-41.99,0,*5B
1519819703.68,28278,5.94,71894.8,-5.67,-41.29,-40.91,0,*51
1519819704.95,28279,5.94,71892.0,-5.65,-40.91,-40.59,0,*54
1519819706.22,28280,5.94,71892.8,-5.65,-40.79,-40.21,0,*5B